Location: Grossmotten
(48.5500°N, 15.3833°E)
Time: 14:22:12
(UTC+00:00)

Meteor 1-11 - Pass Details

Date: 15 November 2019
Orbit: 842 x 885 km, 81.2° (Epoch: 12 December)

Event Time Altitude Azimuth Distance (km) Brightness Sun altitude
Exits shadow 03:09:26 79° 146° (SSE) 900 4.2 -29.1°
Maximum altitude 03:09:43 82° 100° (E) 892 4.2 -29.0°
Drops below altitude 10° 03:15:32 10° 13° (NNE) 2,555 6.9 -28.1°
Sets 03:18:00 0° 13° (NNE) 3,501 7.6 -27.6°
